Wind_Speed
46 46 45 46 46 46 46 46 46 46 46 45 45 45 45 45 44 44 44 45 45 44 43 43 44 45 46 46 45 46 46 47 47 46 46 47 48 47 47 47 49 50 50
47 46 46 46 46 46 46 46 46 46 46 46 46 45 44 44 44 44 44 45 45 45 45 45 45 45 46 47 46 46 47 47 48 48 48 48 48 47 47 48 49 50 50
48 48 47 47 47 47 47 47 47 46 46 46 46 45 45 44 44 44 44 45 45 44 44 44 45 45 46 46 47 47 48 49 49 50 49 48 48 48 48 49 49 49 49
48 48 48 48 48 49 49 49 49 48 48 47 46 45 45 45 44 44 45 45 45 45 45 45 45 46 47 47 48 49 50 50 50 50 50 48 48 48 48 48 48 48 48
49 49 49 49 49 49 50 50 50 50 49 48 47 46 46 45 45 44 45 45 46 46 47 47 47 47 48 48 49 50 50 50 50 50 49 48 47 47 47 48 48 48 47
48 48 48 49 49 49 50 50 50 49 49 48 48 47 47 46 46 46 46 46 46 47 48 48 48 47 48 48 49 50 50 50 50 50 48 47 47 47 47 48 48 47 46
46 47 47 47 48 48 49 49 49 49 49 49 49 49 49 47 47 47 47 47 46 47 47 48 47 48 48 48 49 49 49 50 50 49 48 47 47 48 49 48 47 46 47
47 47 47 47 47 47 47 47 48 48 48 48 48 49 49 48 47 47 47 47 46 46 46 46 47 48 48 48 49 49 49 49 49 48 47 47 48 48 48 47 46 45 46
45 46 46 46 46 46 46 45 46 46 46 47 47 47 48 48 48 47 47 47 46 46 46 46 47 48 49 49 49 48 48 48 47 47 46 47 47 47 47 46 45 45 44
44 45 45 46 46 46 46 45 45 45 46 46 45 46 46 46 46 46 46 46 46 46 46 46 47 48 48 48 47 47 47 46 46 46 46 46 46 45 45 45 45 44 44
43 43 44 44 44 45 44 45 45 45 45 45 45 44 44 44 44 45 45 45 45 45 46 46 46 46 46 46 47 47 47 46 46 45 45 45 44 44 44 45 45 44 43
42 43 43 44 44 44 44 44 44 44 44 44 43 43 43 43 43 44 44 45 45 46 46 45 45 45 46 46 47 47 46 46 45 45 44 43 43 43 44 44 43 43 43
41 41 42 43 43 43 44 44 44 43 43 43 43 42 42 42 42 43 43 43 44 45 45 45 44 44 44 45 45 45 45 45 45 44 43 42 42 43 43 42 42 41 41
39 40 41 41 42 42 42 42 42 42 42 41 41 40 40 41 41 41 42 42 42 42 42 42 42 43 43 43 43 43 42 43 43 42 42 42 42 42 41 40 39 39 39
38 38 39 39 39 39 39 39 39 39 40 40 40 40 40 40 40 40 39 39 40 40 40 40 41 41 42 42 41 41 41 41 40 40 40 40 40 39 38 37 37 37 37
35 36 37 37 37 37 37 37 37 38 38 39 39 39 39 39 39 38 38 38 38 38 39 39 39 40 40 40 40 40 39 39 39 39 38 38 37 35 35 35 35 35 35
34 35 35 35 35 35 35 35 36 36 37 37 36 37 37 38 38 38 39 39 38 38 39 39 39 39 39 39 38 38 37 37 37 37 36 34 33 33 33 33 33 33 33
32 32 33 32 32 32 32 32 32 33 33 33 33 34 35 35 36 37 37 37 37 37 38 38 38 38 38 37 36 35 35 35 35 34 33 32 32 32 32 32 32 31 31
30 30 30 30 30 29 29 29 30 30 30 30 31 32 32 33 34 34 34 34 34 34 35 35 35 35 35 34 34 34 34 33 33 32 31 30 30 30 29 29 29 28 28
29 28 29 29 28 28 28 28 28 28 28 29 30 30 30 31 31 31 31 31 31 31 31 31 31 31 31 31 31 31 30 30 29 29 28 27 27 27 27 26 26 25 26
28 28 28 28 27 27 28 28 27 28 28 28 29 29 29 29 29 29 29 29 29 29 29 28 28 28 28 28 27 27 26 25 25 25 24 24 24 24 23 23 23 24 24
27 27 27 27 27 27 27 27 26 27 27 27 28 28 28 28 28 28 28 28 28 28 28 27 27 26 26 25 24 23 22 22 22 22 21 21 21 21 21 21 22 22 23
27 27 27 27 27 27 26 26 25 25 26 26 26 26 26 26 26 26 26 26 25 25 25 25 25 25 24 23 22 21 21 21 21 20 19 18 18 18 19 19 20 20 20
26 26 27 27 27 27 26 25 25 25 25 25 25 25 24 24 24 24 24 23 24 24 24 23 23 22 21 21 20 20 19 19 19 18 17 16 16 16 17 17 18 18 17
25 25 25 25 26 26 26 26 25 25 25 24 24 24 24 24 23 23 23 22 22 22 22 21 21 20 19 18 19 18 18 18 17 16 15 15 15 15 15 16 16 15 14
25 25 25 25 25 25 25 25 25 25 24 24 24 24 24 23 22 22 22 22 22 21 20 20 19 18 18 17 17 17 17 16 15 14 13 13 13 14 14 13 13 12 12
Wind_Direction
249 250 253 254 255 256 256 258 258 260 261 263 265 267 269 270 270 271 271 272 273 273 275 277 280 282 284 285 287 289 290 291 292 293 294 295 295 296 296 297 298 299 300
249 250 252 254 256 256 256 258 260 261 261 263 265 266 268 269 270 272 272 272 272 273 275 278 279 282 284 285 286 288 289 291 292 293 293 294 294 295 296 297 298 299 300
250 252 253 255 256 257 257 258 260 261 262 264 265 266 268 270 271 272 272 272 272 273 275 277 279 281 284 285 287 289 290 291 292 293 293 293 293 294 295 297 298 299 300
252 254 255 256 257 257 258 258 259 260 262 264 266 267 268 269 271 271 272 273 273 273 275 277 279 281 283 285 287 289 290 292 293 294 293 293 293 294 295 297 298 298 300
252 254 256 257 257 257 258 259 260 262 263 265 265 266 268 269 270 271 272 273 273 273 275 277 279 282 283 285 287 289 290 292 293 293 293 293 293 294 296 297 297 298 299
253 254 256 257 257 258 258 259 260 262 263 264 264 266 267 268 270 271 272 273 273 274 275 276 279 281 283 285 287 289 290 291 292 292 292 293 294 295 296 297 298 298 298
254 254 255 257 258 258 259 260 261 262 263 264 265 266 268 269 270 270 271 272 273 274 275 276 278 280 283 284 286 288 290 291 292 292 291 292 294 295 297 298 299 299 300
253 254 255 257 258 259 260 261 262 262 263 265 266 267 267 268 268 269 270 272 273 274 275 276 278 280 283 285 287 288 289 290 290 291 292 293 294 295 297 298 298 299 301
254 255 256 257 257 259 260 261 263 264 265 266 267 267 267 267 268 269 270 272 273 274 275 276 278 280 282 285 286 288 288 289 290 291 292 293 295 296 296 297 298 299 301
256 256 256 257 257 258 260 261 263 265 266 267 267 268 268 269 270 269 270 271 272 274 275 277 279 281 282 284 286 287 288 288 288 289 291 293 294 294 295 297 298 299 300
256 257 257 258 258 259 261 262 264 265 266 267 267 268 269 269 269 269 270 271 272 273 275 277 279 280 282 283 285 286 286 286 286 288 290 291 292 293 295 296 298 299 300
257 258 259 260 261 261 263 264 265 266 267 267 268 268 268 268 269 271 272 272 273 274 275 277 279 281 282 283 285 286 286 286 286 288 289 290 291 293 294 296 297 298 299
259 260 261 261 261 262 263 264 264 265 266 266 267 268 269 269 269 271 272 273 274 276 277 278 280 282 283 285 286 286 286 286 286 287 288 289 291 292 294 294 296 298 299
262 262 262 263 263 263 263 264 264 264 265 266 266 268 269 270 271 271 272 273 275 277 278 279 281 283 284 286 287 287 287 287 287 286 287 288 289 292 293 294 295 297 298
262 262 263 263 263 263 264 264 264 265 264 265 266 267 268 269 271 271 273 274 275 277 279 280 282 284 286 287 287 287 287 287 287 287 288 289 290 292 292 294 296 297 298
262 262 263 264 264 264 264 264 265 264 265 265 266 267 267 268 270 271 273 275 276 277 279 280 282 285 286 287 287 286 286 286 286 288 289 290 291 291 293 294 296 297 298
263 263 263 264 264 264 265 265 265 265 265 266 267 267 267 268 270 271 273 274 276 277 279 281 283 284 286 286 286 285 285 285 287 288 288 289 289 291 292 294 296 297 298
262 262 262 263 263 263 264 265 265 265 265 266 267 267 268 270 272 273 275 276 277 278 280 282 283 284 285 285 285 285 285 285 286 287 287 288 289 291 293 295 297 297 298
260 261 261 261 262 262 263 264 265 265 267 269 270 270 271 272 274 274 276 277 279 280 281 282 283 284 284 285 284 285 285 286 286 287 287 287 289 290 292 294 297 298 299
259 260 260 260 261 261 262 263 265 266 268 270 271 272 273 274 275 275 277 278 279 280 281 283 284 284 285 286 286 285 285 285 285 286 286 287 289 290 291 293 297 299 301
258 258 258 258 258 260 262 264 265 266 267 269 271 273 274 274 275 275 277 278 279 279 281 283 285 286 287 288 287 286 286 286 286 286 287 288 289 290 293 295 297 300 302
258 258 258 258 258 259 262 264 265 266 268 270 272 274 276 275 276 276 277 278 279 281 283 284 284 285 287 288 287 284 284 286 287 287 288 289 290 290 291 294 299 302 303
258 257 258 259 259 260 261 263 264 266 268 271 273 275 276 275 276 277 278 279 280 282 284 284 285 285 286 286 284 283 284 285 288 288 288 288 289 291 294 299 302 304 307
259 259 260 260 260 261 262 263 264 267 268 270 272 273 274 275 276 277 278 280 281 282 283 284 285 285 285 284 283 284 285 286 288 287 286 286 289 292 296 301 305 308 311
260 260 260 260 260 260 261 263 264 266 268 270 272 272 273 275 275 275 277 280 282 282 283 284 285 285 285 285 284 283 284 285 285 285 284 285 289 293 297 301 305 309 313
261 261 261 261 261 261 261 261 262 264 267 270 272 273 274 274 273 275 278 279 279 280 281 282 282 282 283 284 286 285 285 285 284 283 283 285 289 294 297 299 302 307 312
Height
5699 5701 5703 5705 5707 5708 5710 5711 5712 5713 5714 5715 5716 5716 5716 5716 5716 5716 5716 5717 5717 5717 5716 5716 5715 5713 5712 5710 5708 5705 5703 5700 5698 5696 5692 5688 5683 5679 5675 5670 5666 5661 5656
5688 5690 5692 5694 5696 5697 5699 5700 5701 5702 5703 5704 5705 5706 5706 5706 5706 5706 5706 5706 5706 5706 5706 5705 5704 5703 5701 5699 5697 5695 5692 5689 5686 5684 5681 5676 5672 5667 5663 5659 5655 5649 5644
5677 5679 5681 5683 5685 5686 5688 5689 5690 5692 5692 5693 5694 5695 5695 5695 5695 5695 5695 5695 5695 5695 5695 5694 5693 5692 5690 5688 5686 5683 5680 5677 5674 5671 5668 5664 5660 5656 5652 5648 5643 5638 5633
5665 5667 5669 5671 5673 5675 5677 5678 5679 5680 5681 5682 5683 5683 5684 5684 5684 5684 5684 5684 5684 5684 5684 5683 5682 5681 5679 5677 5674 5672 5669 5665 5662 5658 5655 5652 5648 5644 5640 5636 5632 5627 5622
5654 5656 5658 5660 5661 5663 5665 5666 5667 5669 5670 5670 5671 5672 5672 5673 5673 5673 5673 5673 5673 5673 5672 5671 5670 5669 5667 5665 5662 5660 5657 5653 5650 5646 5643 5640 5637 5633 5629 5624 5620 5616 5611
5642 5644 5646 5648 5649 5651 5653 5654 5656 5657 5658 5659 5659 5660 5661 5661 5661 5661 5661 5661 5661 5661 5660 5659 5658 5657 5655 5653 5650 5647 5644 5641 5638 5634 5631 5628 5625 5621 5617 5613 5608 5604 5601
5631 5633 5634 5636 5637 5639 5641 5642 5643 5645 5646 5647 5647 5648 5649 5649 5649 5649 5649 5649 5649 5649 5648 5647 5646 5645 5643 5641 5638 5635 5632 5628 5625 5622 5619 5616 5613 5610 5606 5602 5597 5592 5588
5619 5621 5623 5624 5626 5627 5629 5630 5631 5632 5633 5634 5635 5636 5636 5637 5637 5637 5637 5637 5637 5636 5636 5635 5634 5633 5631 5628 5626 5623 5620 5616 5613 5610 5608 5604 5601 5597 5593 5589 5585 5581 5577
5608 5610 5611 5613 5614 5616 5617 5619 5620 5620 5621 5622 5623 5623 5624 5624 5624 5624 5624 5624 5624 5624 5623 5622 5621 5620 5618 5616 5614 5611 5608 5605 5601 5598 5596 5592 5589 5585 5581 5578 5574 5571 5567
5596 5598 5600 5601 5603 5604 5606 5607 5608 5608 5609 5610 5610 5611 5611 5611 5612 5612 5612 5612 5612 5612 5611 5610 5609 5607 5605 5603 5600 5598 5596 5594 5590 5588 5585 5581 5578 5574 5570 5567 5563 5559 5556
5585 5587 5588 5589 5591 5592 5594 5595 5596 5596 5597 5598 5598 5599 5599 5599 5599 5600 5599 5599 5599 5599 5599 5598 5596 5594 5592 5590 5588 5586 5584 5581 5579 5576 5574 5571 5567 5564 5560 5556 5552 5548 5545
5574 5575 5576 5578 5579 5581 5582 5583 5583 5584 5585 5585 5586 5586 5587 5587 5587 5587 5587 5587 5586 5586 5586 5585 5584 5582 5580 5578 5575 5573 5571 5568 5566 5564 5562 5560 5557 5553 5550 5546 5542 5538 5534
5563 5564 5565 5566 5567 5569 5570 5571 5571 5572 5573 5573 5574 5575 5575 5575 5575 5576 5575 5575 5574 5574 5573 5572 5571 5570 5567 5565 5563 5561 5558 5556 5554 5553 5551 5548 5545 5542 5539 5535 5532 5528 5524
5552 5553 5554 5555 5556 5557 5558 5559 5560 5560 5561 5562 5562 5563 5563 5564 5564 5564 5564 5564 5563 5562 5561 5560 5559 5558 5556 5554 5551 5549 5547 5544 5542 5541 5539 5537 5534 5531 5528 5525 5522 5519 5516
5541 5542 5543 5544 5545 5546 5547 5548 5549 5549 5550 5551 5551 5552 5553 5553 5553 5553 5553 5553 5552 5551 5550 5550 5548 5547 5545 5542 5540 5538 5535 5533 5531 5530 5527 5525 5523 5521 5518 5515 5513 5510 5507
5531 5532 5533 5534 5535 5536 5537 5538 5538 5539 5539 5540 5540 5541 5542 5543 5543 5543 5542 5542 5541 5541 5540 5539 5538 5536 5534 5531 5529 5527 5525 5523 5521 5519 5517 5515 5513 5511 5509 5507 5504 5501 5498
5521 5522 5523 5524 5525 5525 5526 5527 5528 5528 5529 5530 5530 5531 5532 5532 5532 5532 5532 5531 5531 5530 5529 5528 5527 5525 5523 5521 5519 5517 5515 5513 5511 5509 5508 5506 5504 5502 5500 5498 5495 5493 5490
5511 5512 5513 5514 5515 5516 5517 5517 5518 5519 5520 5520 5521 5521 5521 5522 5522 5521 5521 5521 5521 5520 5519 5517 5516 5514 5512 5510 5508 5507 5505 5503 5502 5500 5499 5497 5496 5494 5492 5490 5487 5485 5482
5502 5503 5504 5505 5506 5507 5508 5509 5509 5510 5511 5511 5512 5512 5512 5512 5512 5511 5511 5511 5510 5510 5508 5507 5505 5504 5502 5500 5499 5497 5496 5494 5493 5491 5490 5489 5487 5486 5484 5482 5480 5477 5475
5494 5495 5496 5497 5498 5499 5500 5500 5501 5502 5503 5503 5503 5503 5503 5503 5503 5502 5502 5502 5501 5500 5499 5498 5496 5494 5493 5491 5490 5489 5487 5486 5485 5484 5482 5481 5480 5478 5477 5475 5473 5471 5468
5486 5487 5488 5489 5490 5491 5491 5492 5493 5494 5494 5495 5495 5495 5495 5495 5495 5494 5494 5493 5492 5492 5491 5489 5488 5487 5485 5484 5482 5481 5479 5478 5477 5476 5475 5474 5473 5472 5470 5468 5467 5465 5462
5478 5479 5480 5481 5482 5483 5484 5484 5485 5486 5487 5487 5487 5487 5487 5487 5486 5486 5486 5485 5484 5484 5483 5482 5481 5479 5478 5477 5475 5474 5473 5472 5471 5470 5469 5468 5467 5466 5464 5463 5461 5459 5456
5470 5471 5472 5473 5474 5475 5476 5477 5478 5478 5479 5479 5479 5479 5479 5479 5479 5478 5478 5477 5477 5476 5475 5474 5473 5472 5471 5470 5469 5468 5467 5466 5465 5464 5464 5463 5462 5461 5460 5458 5456 5454 5452
5462 5463 5464 5465 5466 5467 5468 5469 5470 5471 5471 5472 5472 5472 5472 5472 5472 5471 5471 5470 5470 5469 5468 5467 5466 5465 5464 5463 5463 5462 5461 5460 5460 5459 5458 5458 5457 5456 5455 5453 5452 5449 5447
5455 5456 5457 5458 5459 5460 5461 5462 5462 5463 5464 5464 5464 5465 5465 5464 5464 5464 5464 5463 5463 5462 5461 5460 5459 5459 5458 5457 5457 5456 5456 5455 5454 5454 5453 5453 5453 5452 5450 5449 5448 5446 5444
5447 5448 5449 5450 5451 5452 5453 5454 5455 5456 5456 5457 5457 5457 5457 5457 5457 5457 5457 5457 5456 5456 5455 5454 5454 5453 5452 5452 5451 5451 5450 5450 5449 5449 5449 5449 5449 5448 5447 5445 5444 5443 5441